PDT5913 KCLT-KLYH

Flight info

Callsign PDT5913
Flight time 0h 38m
Altitude 21000
Route KRITR6 SMIAM LYH
Aircraft E145/M-SABDFGRW/S

Departure

Time 2026-05-05 01:46
Airport Charlotte Douglas International Airport (KCLT)

Arrival

Time 2026-05-05 02:25
Airport Lynchburg Regional Airport - Preston Glenn Field (KLYH)
Time Latitude Longitude Altitude Speed Heading
2026-05-05 01:23 35.22229 -80.94070 730 ft 0 kts 331°
2026-05-05 01:26 35.22228 -80.94070 731 ft 0 kts 331°
2026-05-05 01:33 35.22229 -80.94070 731 ft 0 kts 331°
2026-05-05 01:33 35.22229 -80.94071 731 ft 0 kts 331°
2026-05-05 01:33 35.22229 -80.94070 731 ft 0 kts 331°
2026-05-05 01:33 35.22220 -80.94061 731 ft 2 kts 313°
2026-05-05 01:34 35.22209 -80.94048 731 ft 2 kts 316°
2026-05-05 01:34 35.22197 -80.94034 731 ft 2 kts 316°
2026-05-05 01:34 35.22189 -80.94024 731 ft 0 kts 318°
2026-05-05 01:34 35.22184 -80.94021 731 ft 0 kts 17°
2026-05-05 01:35 35.22178 -80.94025 731 ft 0 kts 75°
2026-05-05 01:35 35.22178 -80.94032 731 ft 0 kts 85°
2026-05-05 01:41 35.22178 -80.94028 731 ft 0 kts 84°
2026-05-05 01:41 35.22180 -80.94016 731 ft 1 kts 78°
2026-05-05 01:41 35.22189 -80.93986 731 ft 7 kts 63°
2026-05-05 01:41 35.22214 -80.93926 733 ft 8 kts 73°
2026-05-05 01:42 35.22222 -80.93861 733 ft 5 kts 85°
2026-05-05 01:42 35.22224 -80.93817 734 ft 2 kts 92°
2026-05-05 01:42 35.22210 -80.93791 734 ft 4 kts 135°
2026-05-05 01:42 35.22201 -80.93753 734 ft 5 kts 68°
2026-05-05 01:43 35.22239 -80.93732 734 ft 6 kts
2026-05-05 01:43 35.22291 -80.93735 735 ft 8 kts 354°
2026-05-05 01:43 35.22354 -80.93740 735 ft 9 kts 356°
2026-05-05 01:43 35.22427 -80.93747 736 ft 11 kts 354°
2026-05-05 01:44 35.22493 -80.93743 736 ft 3 kts 37°
2026-05-05 01:44 35.22494 -80.93742 736 ft 0 kts 40°
2026-05-05 01:44 35.22495 -80.93741 736 ft 1 kts 43°
2026-05-05 01:45 35.22506 -80.93704 736 ft 8 kts 83°
2026-05-05 01:45 35.22464 -80.93618 736 ft 14 kts 174°
2026-05-05 01:45 35.22222 -80.93597 734 ft 69 kts 175°
2026-05-05 01:45 35.21486 -80.93535 727 ft 134 kts 176°
2026-05-05 01:46 35.20445 -80.93423 1017 ft 154 kts 176°
2026-05-05 01:46 35.19312 -80.93327 1587 ft 170 kts 179°
2026-05-05 01:46 35.18103 -80.93162 2358 ft 181 kts 175°
2026-05-05 01:46 35.16841 -80.92926 3200 ft 188 kts 175°
2026-05-05 01:47 35.15540 -80.92683 4078 ft 194 kts 175°
2026-05-05 01:47 35.14200 -80.92439 4971 ft 199 kts 175°
2026-05-05 01:47 35.12800 -80.92192 5890 ft 204 kts 175°
2026-05-05 01:47 35.11361 -80.91944 6808 ft 207 kts 175°
2026-05-05 01:48 35.09834 -80.91683 7178 ft 239 kts 175°
2026-05-05 01:48 35.08033 -80.91291 7372 ft 269 kts 162°
2026-05-05 01:48 35.06478 -80.89917 8041 ft 282 kts 130°
2026-05-05 01:48 35.05684 -80.87679 8764 ft 289 kts 99°
2026-05-05 01:49 35.05902 -80.85230 9441 ft 292 kts 68°
2026-05-05 01:49 35.07091 -80.83182 10091 ft 293 kts 37°
2026-05-05 01:49 35.09034 -80.82085 10720 ft 292 kts
2026-05-05 01:49 35.11112 -80.81515 11181 ft 305 kts 21°
2026-05-05 01:50 35.13018 -80.80128 11658 ft 316 kts 28°
2026-05-05 01:50 35.14948 -80.78739 12108 ft 326 kts 28°
2026-05-05 01:50 35.16931 -80.77319 12633 ft 331 kts 28°
2026-05-05 01:50 35.18977 -80.75857 13287 ft 333 kts 28°
2026-05-05 01:51 35.21029 -80.74390 13902 ft 335 kts 28°
2026-05-05 01:51 35.23150 -80.72872 14464 ft 339 kts 27°
2026-05-05 01:51 35.25342 -80.71303 15052 ft 342 kts 27°
2026-05-05 01:51 35.27575 -80.69704 15646 ft 345 kts 27°
2026-05-05 01:52 35.29828 -80.68088 16196 ft 349 kts 27°
2026-05-05 01:52 35.32102 -80.66457 16769 ft 352 kts 27°
2026-05-05 01:52 35.34404 -80.64805 17317 ft 355 kts 27°
2026-05-05 01:52 35.36617 -80.63215 17871 ft 357 kts 27°
2026-05-05 01:53 35.38873 -80.61594 18496 ft 356 kts 26°
2026-05-05 01:53 35.41058 -80.60021 19126 ft 356 kts 26°
2026-05-05 01:53 35.43300 -80.58408 19764 ft 355 kts 26°
2026-05-05 01:53 35.45521 -80.56808 20356 ft 355 kts 26°
2026-05-05 01:54 35.47742 -80.55209 20940 ft 355 kts 26°
2026-05-05 01:54 35.49992 -80.53587 21036 ft 367 kts 26°
2026-05-05 01:54 35.52259 -80.51952 21036 ft 378 kts 26°
2026-05-05 01:54 35.54599 -80.50264 21045 ft 388 kts 26°
2026-05-05 01:55 35.56989 -80.48539 21040 ft 398 kts 26°
2026-05-05 01:55 35.59504 -80.46722 21029 ft 407 kts 27°
2026-05-05 01:55 35.62056 -80.44875 21033 ft 414 kts 27°
2026-05-05 01:55 35.64587 -80.43041 21027 ft 420 kts 27°
2026-05-05 01:56 35.67183 -80.41160 21026 ft 423 kts 27°
2026-05-05 01:56 35.69792 -80.39268 21024 ft 424 kts 27°
2026-05-05 01:56 35.72371 -80.37395 21015 ft 424 kts 27°
2026-05-05 01:56 35.75012 -80.35478 21015 ft 425 kts 27°
2026-05-05 01:57 35.77604 -80.33594 21013 ft 425 kts 27°
2026-05-05 01:57 35.80186 -80.31715 21016 ft 425 kts 27°
2026-05-05 01:57 35.82737 -80.29858 21018 ft 425 kts 27°
2026-05-05 01:57 35.85305 -80.27987 21019 ft 425 kts 27°
2026-05-05 01:58 35.87855 -80.26128 21020 ft 425 kts 27°
2026-05-05 01:58 35.90420 -80.24257 21019 ft 425 kts 27°
2026-05-05 01:58 35.92988 -80.22382 21028 ft 425 kts 27°
2026-05-05 01:58 35.95521 -80.20531 21018 ft 425 kts 28°
2026-05-05 01:59 35.98095 -80.18648 21015 ft 425 kts 28°
2026-05-05 01:59 36.00651 -80.16778 21013 ft 425 kts 28°
2026-05-05 01:59 36.03226 -80.14892 21017 ft 425 kts 28°
2026-05-05 01:59 36.05805 -80.13001 21029 ft 425 kts 28°
2026-05-05 02:00 36.08369 -80.11121 21015 ft 425 kts 28°
2026-05-05 02:00 36.10938 -80.09234 21016 ft 425 kts 28°
2026-05-05 02:00 36.13522 -80.07336 21010 ft 425 kts 28°
2026-05-05 02:00 36.16091 -80.05447 21031 ft 424 kts 28°
2026-05-05 02:01 36.18632 -80.03577 21014 ft 425 kts 28°
2026-05-05 02:01 36.21201 -80.01685 21011 ft 425 kts 28°
2026-05-05 02:01 36.23782 -79.99783 21021 ft 425 kts 28°
2026-05-05 02:01 36.26308 -79.97920 21016 ft 425 kts 28°
2026-05-05 02:02 36.28885 -79.96018 21016 ft 425 kts 28°
2026-05-05 02:02 36.31437 -79.94133 21014 ft 425 kts 27°
2026-05-05 02:02 36.34004 -79.92235 21016 ft 425 kts 27°
2026-05-05 02:02 36.36563 -79.90342 21013 ft 426 kts 27°
2026-05-05 02:03 36.39110 -79.88457 20875 ft 425 kts 28°
2026-05-05 02:03 36.41632 -79.86587 20353 ft 419 kts 27°
2026-05-05 02:03 36.44145 -79.84723 19839 ft 413 kts 27°
2026-05-05 02:03 36.46616 -79.82890 19329 ft 408 kts 27°
2026-05-05 02:04 36.49044 -79.81087 18823 ft 404 kts 27°
2026-05-05 02:04 36.51434 -79.79311 18320 ft 399 kts 27°
2026-05-05 02:04 36.53834 -79.77526 17810 ft 395 kts 27°
2026-05-05 02:04 36.56161 -79.75794 17318 ft 392 kts 27°
2026-05-05 02:05 36.58516 -79.74040 16820 ft 387 kts 27°
2026-05-05 02:05 36.60850 -79.72300 16314 ft 380 kts 27°
2026-05-05 02:05 36.63135 -79.70596 15819 ft 374 kts 27°
2026-05-05 02:05 36.65354 -79.68939 15318 ft 369 kts 27°
2026-05-05 02:06 36.67700 -79.67187 14782 ft 364 kts 27°
2026-05-05 02:06 36.69931 -79.65520 14268 ft 360 kts 26°
2026-05-05 02:06 36.72052 -79.63934 13775 ft 356 kts 26°
2026-05-05 02:06 36.74191 -79.62333 13275 ft 352 kts 26°
2026-05-05 02:07 36.76366 -79.60703 12761 ft 346 kts 26°
2026-05-05 02:07 36.78416 -79.59167 12259 ft 335 kts 26°
2026-05-05 02:07 36.80419 -79.57664 11758 ft 327 kts 26°
2026-05-05 02:07 36.82343 -79.56222 11312 ft 319 kts 26°
2026-05-05 02:08 36.84226 -79.54808 11023 ft 316 kts 26°
2026-05-05 02:08 36.86100 -79.53400 10998 ft 306 kts 26°
2026-05-05 02:08 36.87920 -79.52032 10999 ft 302 kts 26°
2026-05-05 02:08 36.89731 -79.50661 11000 ft 300 kts 26°
2026-05-05 02:09 36.91700 -79.49733 11012 ft 286 kts
2026-05-05 02:09 36.93662 -79.49229 10839 ft 290 kts
2026-05-05 02:09 36.95656 -79.48762 10500 ft 288 kts
2026-05-05 02:09 36.97655 -79.48302 10200 ft 285 kts
2026-05-05 02:10 36.99591 -79.47858 9946 ft 281 kts
2026-05-05 02:10 37.01502 -79.47420 9699 ft 277 kts
2026-05-05 02:10 37.03408 -79.46984 9442 ft 275 kts
2026-05-05 02:10 37.05289 -79.46552 9202 ft 276 kts
2026-05-05 02:11 37.07364 -79.46077 8943 ft 277 kts
2026-05-05 02:11 37.09409 -79.45606 8681 ft 277 kts
2026-05-05 02:11 37.11369 -79.45157 8433 ft 277 kts
2026-05-05 02:11 37.13343 -79.44703 8180 ft 277 kts
2026-05-05 02:12 37.15310 -79.44250 7922 ft 277 kts
2026-05-05 02:12 37.19239 -79.43346 7413 ft 276 kts
2026-05-05 02:12 37.21252 -79.42883 7146 ft 276 kts
2026-05-05 02:13 37.23162 -79.42443 6911 ft 275 kts
2026-05-05 02:13 37.25103 -79.41995 6656 ft 274 kts
2026-05-05 02:13 37.27014 -79.41554 6403 ft 274 kts
2026-05-05 02:13 37.28943 -79.41110 6148 ft 273 kts
2026-05-05 02:14 37.30872 -79.40663 5888 ft 274 kts
2026-05-05 02:14 37.32803 -79.40218 5634 ft 274 kts
2026-05-05 02:14 37.34712 -79.39776 5391 ft 273 kts
2026-05-05 02:14 37.36628 -79.39333 5146 ft 273 kts
2026-05-05 02:15 37.38560 -79.38886 5000 ft 268 kts
2026-05-05 02:15 37.40470 -79.38443 4990 ft 258 kts
2026-05-05 02:15 37.42307 -79.38019 4997 ft 266 kts
2026-05-05 02:15 37.44358 -79.37543 4993 ft 274 kts
2026-05-05 02:16 37.46363 -79.37078 4992 ft 278 kts
2026-05-05 02:16 37.48344 -79.36619 4986 ft 281 kts
2026-05-05 02:16 37.50384 -79.36144 4992 ft 280 kts
2026-05-05 02:16 37.52367 -79.35684 4989 ft 280 kts
2026-05-05 02:17 37.54368 -79.35220 4986 ft 280 kts
2026-05-05 02:17 37.56284 -79.34525 4973 ft 284 kts 27°
2026-05-05 02:17 37.57781 -79.32808 4789 ft 284 kts 58°
2026-05-05 02:17 37.58400 -79.30487 4551 ft 277 kts 90°
2026-05-05 02:18 37.58024 -79.28178 4397 ft 261 kts 123°
2026-05-05 02:18 37.57005 -79.26278 4377 ft 253 kts 127°
2026-05-05 02:18 37.56081 -79.24376 4371 ft 253 kts 126°
2026-05-05 02:18 37.55181 -79.22467 4377 ft 252 kts 125°
2026-05-05 02:19 37.54298 -79.20579 4377 ft 249 kts 125°
2026-05-05 02:19 37.53429 -79.18716 4365 ft 242 kts 125°
2026-05-05 02:19 37.52575 -79.16887 4359 ft 235 kts 125°
2026-05-05 02:19 37.51751 -79.15124 4366 ft 233 kts 126°
2026-05-05 02:20 37.50917 -79.13341 4369 ft 233 kts 125°
2026-05-05 02:20 37.50075 -79.11601 4364 ft 229 kts 134°
2026-05-05 02:20 37.48865 -79.10535 4389 ft 205 kts 169°
2026-05-05 02:20 37.47434 -79.10569 4177 ft 198 kts 199°
2026-05-05 02:21 37.46161 -79.11194 3859 ft 191 kts 206°
2026-05-05 02:21 37.44973 -79.11903 3562 ft 186 kts 208°
2026-05-05 02:21 37.43824 -79.12637 3292 ft 180 kts 210°
2026-05-05 02:21 37.42737 -79.13348 3039 ft 174 kts 210°
2026-05-05 02:22 37.41671 -79.14050 2804 ft 169 kts 209°
2026-05-05 02:22 37.40653 -79.14723 2565 ft 155 kts 209°
2026-05-05 02:22 37.39777 -79.15319 2385 ft 133 kts 210°
2026-05-05 02:22 37.38965 -79.15861 2203 ft 127 kts 209°
2026-05-05 02:23 37.38193 -79.16371 2032 ft 124 kts 208°
2026-05-05 02:23 37.37420 -79.16881 1871 ft 125 kts 208°
2026-05-05 02:23 37.36641 -79.17395 1707 ft 126 kts 208°
2026-05-05 02:23 37.35847 -79.17918 1539 ft 128 kts 208°
2026-05-05 02:24 37.35041 -79.18444 1367 ft 130 kts 207°
2026-05-05 02:24 37.34240 -79.18973 1192 ft 130 kts 209°
2026-05-05 02:24 37.33435 -79.19501 1027 ft 130 kts 207°
2026-05-05 02:24 37.32639 -79.20029 918 ft 119 kts 207°
2026-05-05 02:25 37.32236 -79.20297 903 ft 24 kts 207°
2026-05-05 02:25 37.32018 -79.20442 899 ft 39 kts 208°
2026-05-05 02:25 37.31849 -79.20551 897 ft 18 kts 210°
2026-05-05 02:25 37.31839 -79.20676 899 ft 12 kts 316°
2026-05-05 02:26 37.31916 -79.20660 900 ft 12 kts 26°
2026-05-05 02:26 37.32000 -79.20605 901 ft 14 kts 30°
2026-05-05 02:26 37.32092 -79.20543 902 ft 15 kts 26°
2026-05-05 02:26 37.32193 -79.20476 903 ft 16 kts 28°
2026-05-05 02:27 37.32301 -79.20407 905 ft 17 kts 29°
2026-05-05 02:27 37.32409 -79.20333 908 ft 17 kts 27°
2026-05-05 02:27 37.32519 -79.20263 913 ft 17 kts 27°
2026-05-05 02:27 37.32622 -79.20194 917 ft 16 kts 27°
2026-05-05 02:28 37.32721 -79.20128 921 ft 15 kts 28°
2026-05-05 02:28 37.32819 -79.20063 924 ft 15 kts 27°
2026-05-05 02:28 37.32914 -79.20001 928 ft 15 kts 27°
2026-05-05 02:28 37.33009 -79.19937 930 ft 15 kts 28°
2026-05-05 02:29 37.33111 -79.19870 931 ft 16 kts 28°
2026-05-05 02:29 37.33199 -79.19812 932 ft 10 kts 28°
2026-05-05 02:29 37.33224 -79.19739 932 ft 11 kts 110°
2026-05-05 02:29 37.33178 -79.19649 932 ft 13 kts 136°
2026-05-05 02:30 37.33098 -79.19570 932 ft 15 kts 146°
2026-05-05 02:30 37.33046 -79.19529 931 ft 8 kts 153°
2026-05-05 02:30 37.33020 -79.19511 931 ft 4 kts 150°
2026-05-05 02:30 37.32980 -79.19501 930 ft 7 kts 176°
2026-05-05 02:31 37.32937 -79.19445 930 ft 10 kts 122°
2026-05-05 02:31 37.32935 -79.19363 930 ft 7 kts 52°
2026-05-05 02:31 37.32968 -79.19347 931 ft 4 kts 352°
2026-05-05 02:31 37.32991 -79.19362 932 ft 0 kts 329°